User: anonymous   Login
Location: Arlington
(40.6323°N, 74.1651°W)
Time: 18:01:51
(UTC+00:00)
Language:

PSLV R/B - Orbit

View from above orbital plane
View from above orbital plane
View from above satellite
View from above satellite

Ground track
Ground track

The orbit data is extracted from the following two-line orbital elements,

1 36800U 10035F   20024.55509286 +.00000491 +00000-0 +50919-4 0  9996
2 36800 098.1477 196.5009 0023493 077.0773 283.3068 14.94638544518986
Epoch (UTC): 24 January 2020 13:19:20
Eccentricity: 0.0023493
inclination: 98.1477°
perigee height: 567 km
apogee height: 600 km
right ascension of ascending node: 196.5009°
argument of perigee: 77.0773°
revolutions per day: 14.94638544
mean anomaly at epoch: 283.3068°
orbit number at epoch: 51898

The dashed part of the orbit path shows where the satellite is in the earth's shadow,  

DLR